Location: Golice Kolonia
(52.2117°N, 22.3540°E)
Time: 18:03:01
(UTC+00:00)

Daily predictions for brighter satellites

Satellite Brightness Start Highest point End
(mag) Time Altitude Azimuth Time Altitude Azimuth Time Altitude Azimuth
EXPRESS MD2 3.6 19:28:01 10° WSW 19:31:04 51° SSE 19:36:45 10° E
Cosmos 1378 Rocket 3.9 19:29:20 10° SSW 19:33:42 72° WNW 19:38:04 10° N
Cosmos 1674 Rocket 4.3 19:29:46 10° SSW 19:34:05 57° WNW 19:38:30 10° N
Cosmos 1503 Rocket 4.5 19:30:19 10° NNW 19:35:33 54° ENE 19:40:48 10° SE
STARLINK-1232 3.6 19:31:57 10° WNW 19:36:07 81° SSW 19:40:16 10° ESE
Cosmos 1726 4.2 19:34:17 10° NNE 19:36:41 16° ENE 19:39:06 10° ESE
Cosmos 1331 Rocket 4.2 19:31:37 10° SSW 19:36:48 80° WNW 19:42:03 10° NNE
NOSS 3-2 (C) 4.2 19:29:47 10° NW 19:37:08 73° SW 19:45:28 10° SSE
Cosmos 1805 3.6 19:33:53 10° NNW 19:37:49 69° W 19:41:42 10° S
STARLINK-1224 3.8 19:34:08 10° W 19:38:19 78° N 19:42:28 10° E
SAR-Lupe-2 3.7 19:34:55 10° NNE 19:38:29 56° ESE 19:42:01 10° S
APEX 4.5 19:34:47 10° S 19:40:36 45° ESE 19:45:22 10° NE
STARLINK-1208 3.6 19:36:55 10° WNW 19:41:04 79° SSW 19:45:13 10° ESE
Meteor 1-22 Rocket 4.3 19:35:35 10° NNW 19:41:29 88° W 19:47:05 10° S
STARLINK-1225 3.8 19:39:08 10° W 19:43:18 79° N 19:47:27 10° E
Cosmos 1470 3.5 19:40:17 10° N 19:43:58 40° ENE 19:47:37 10° SE
NOSS 2-2 (E) 3.9 19:41:06 10° WSW 19:44:43 63° NW 19:49:08 10° NE
STARLINK-1271 3.6 19:41:54 10° WNW 19:46:03 76° SSW 19:50:11 10° ESE
COSMOS 2455 3.8 19:42:42 10° SSE 19:47:35 26° ESE 19:52:28 10° NE
STARLINK-1444 2.6 19:46:08 10° SW 19:48:03 31° SSE 19:50:00 10° E
STARLINK-1230 3.8 19:44:06 10° W 19:48:16 79° N 19:52:26 10° E
Cosmos 1733 3.3 19:44:35 10° NNW 19:48:23 77° W 19:52:09 10° S
CZ-2C R/B 4.1 19:43:12 10° N 19:48:29 43° WNW 19:53:44 10° SW
STARLINK-1452 2.6 19:46:47 10° SW 19:48:41 31° SSE 19:50:37 10° E
NOSS 3-4 (A) 3.9 19:43:47 10° S 19:49:10 37° ESE 19:54:53 10° NE
NOSS 3-4 (C) 4.0 19:43:54 10° S 19:49:16 36° ESE 19:54:59 10° NE
STARLINK-1392 2.6 19:47:45 10° SW 19:49:36 30° SSE 19:51:29 10° E
STARLINK-1399 2.6 19:47:45 10° SW 19:49:37 30° SSE 19:51:31 10° E
STARLINK-1393 2.6 19:47:47 10° SW 19:49:39 30° SSE 19:51:33 10° E
STARLINK-1394 2.6 19:47:49 10° SW 19:49:40 30° SSE 19:51:34 10° E
STARLINK-1397 2.6 19:47:51 10° SW 19:49:42 31° SSE 19:51:37 10° E
STARLINK-1395 2.6 19:47:53 10° SW 19:49:43 30° SSE 19:51:35 10° E
STARLINK-1396 2.6 19:47:52 10° SW 19:49:44 30° SSE 19:51:37 10° E
STARLINK-1414 2.6 19:47:52 10° SW 19:49:44 30° SSE 19:51:37 10° E
STARLINK-1408 2.6 19:47:55 10° SW 19:49:47 30° SSE 19:51:40 10° E
STARLINK-1404 2.6 19:47:55 10° SW 19:49:48 31° SSE 19:51:42 10° E
STARLINK-1416 2.6 19:47:57 10° SW 19:49:48 30° SSE 19:51:41 10° E
STARLINK-1415 2.6 19:47:56 10° SW 19:49:49 31° SSE 19:51:44 10° E
STARLINK-1450 2.6 19:47:56 10° SW 19:49:49 31° SSE 19:51:44 10° E
STARLINK-1401 2.6 19:47:59 10° SW 19:49:52 31° SSE 19:51:47 10° E
STARLINK-1406 2.6 19:48:01 10° SW 19:49:52 30° SSE 19:51:45 10° E
STARLINK-1417 2.6 19:48:02 10° SW 19:49:55 31° SSE 19:51:50 10° E
STARLINK-1413 2.6 19:48:03 10° SW 19:49:56 31° SSE 19:51:51 10° E
STARLINK-1402 2.6 19:48:04 10° SW 19:49:56 31° SSE 19:51:51 10° E
STARLINK-1419 2.6 19:48:04 10° SW 19:49:56 31° SSE 19:51:50 10° E
STARLINK-1422 2.6 19:48:09 10° SW 19:50:01 31° SSE 19:51:56 10° E
STARLINK-1453 2.6 19:48:08 10° SW 19:50:02 31° SSE 19:51:57 10° E
STARLINK-1398 2.6 19:48:08 10° SW 19:50:02 31° SSE 19:51:59 10° E
STARLINK-1440 2.6 19:48:10 10° SW 19:50:03 31° SSE 19:51:58 10° E
STARLINK-1436 (VISORSAT) 2.6 19:48:10 10° SW 19:50:05 31° SSE 19:52:01 10° E
STARLINK-1420 2.6 19:48:11 10° SW 19:50:05 31° SSE 19:52:00 10° E
STARLINK-1460 2.6 19:48:14 10° SW 19:50:07 31° SSE 19:52:02 10° E
STARLINK-1410 2.6 19:48:19 10° SW 19:50:12 31° SSE 19:52:07 10° E
STARLINK-1423 2.6 19:48:20 10° SW 19:50:12 31° SSE 19:52:07 10° E
STARLINK-1421 2.6 19:48:20 10° SW 19:50:12 31° SSE 19:52:07 10° E
STARLINK-1400 2.6 19:48:20 10° SW 19:50:12 31° SSE 19:52:08 10° E
STARLINK-1454 2.6 19:48:20 10° SW 19:50:13 31° SSE 19:52:08 10° E
STARLINK-1458 2.6 19:48:22 10° SW 19:50:14 31° SSE 19:52:09 10° E
STARLINK-1445 2.6 19:48:23 10° SW 19:50:17 31° SSE 19:52:12 10° E
STARLINK-1446 2.6 19:48:26 10° SW 19:50:19 31° SSE 19:52:15 10° E
STARLINK-1407 2.6 19:48:26 10° SW 19:50:20 31° SSE 19:52:15 10° E
STARLINK-1405 2.5 19:48:30 10° SW 19:50:21 30° SSE 19:52:13 10° E
STARLINK-1370 2.6 19:48:29 10° SW 19:50:22 31° SSE 19:52:17 10° E
STARLINK-1457 2.6 19:48:29 10° SW 19:50:22 31° SSE 19:52:17 10° E
STARLINK-1456 2.6 19:48:30 10° SW 19:50:22 31° SSE 19:52:17 10° E
STARLINK-1451 2.6 19:48:30 10° SW 19:50:22 31° SSE 19:52:17 10° E
STARLINK-1437 2.6 19:48:30 10° SW 19:50:23 31° SSE 19:52:18 10° E
STARLINK-1455 2.6 19:48:30 10° SW 19:50:24 31° SSE 19:52:19 10° E
STARLINK-1409 2.6 19:48:31 10° SW 19:50:24 31° SSE 19:52:18 10° E
STARLINK-1447 2.6 19:48:30 10° SW 19:50:24 31° SSE 19:52:19 10° E
STARLINK-1439 2.5 19:48:34 10° SW 19:50:24 30° SSE 19:52:16 10° E
STARLINK-1441 2.6 19:48:32 10° SW 19:50:26 31° SSE 19:52:21 10° E
STARLINK-1443 2.6 19:48:34 10° SW 19:50:28 31° SSE 19:52:24 10° E
STARLINK-1351 2.6 19:48:37 10° SW 19:50:30 31° SSE 19:52:26 10° E
STARLINK-1418 2.6 19:48:37 10° SW 19:50:30 31° SSE 19:52:26 10° E
STARLINK-1442 2.6 19:48:37 10° SW 19:50:31 31° SSE 19:52:26 10° E
STARLINK-1434 2.6 19:48:37 10° SW 19:50:31 31° SSE 19:52:27 10° E
STARLINK-1403 2.6 19:48:37 10° SW 19:50:31 31° SSE 19:52:27 10° E
STARLINK-1448 2.6 19:48:39 10° SW 19:50:32 31° SSE 19:52:28 10° E
STARLINK-1433 2.6 19:48:41 10° SW 19:50:34 31° SSE 19:52:29 10° E
STARLINK-1449 2.6 19:48:41 10° SW 19:50:35 31° SSE 19:52:30 10° E
STARLINK-1438 2.5 19:48:45 10° SW 19:50:38 31° SSE 19:52:32 10° E
STARLINK-1411 2.5 19:48:51 10° SW 19:50:44 31° SSE 19:52:40 10° E
STARLINK-1412 2.6 19:48:51 10° SW 19:50:44 31° SSE 19:52:40 10° E
STARLINK-1154 3.6 19:46:51 10° WNW 19:50:59 73° SSW 19:55:08 10° ESE
Cosmos 1302 Rocket 4.0 19:45:44 10° SSW 19:51:01 78° ESE 19:56:20 10° NNE
FALCON 9 DEB 4.2 19:48:55 10° SSW 19:51:45 24° SE 19:54:35 10° E
Cosmos 1340 Rocket 4.3 19:49:26 10° N 19:52:53 25° ENE 19:56:19 10° ESE
STARLINK-1243 3.8 19:49:07 10° W 19:53:16 79° N 19:57:27 10° E
STARLINK-1235 4.4 19:50:33 10° W 19:53:33 28° SW 19:56:27 11° SSE
STARLINK-60 2.9 19:50:48 10° WSW 19:53:55 56° SSE 19:57:03 10° ENE
STARLINK-1197 3.6 19:51:51 10° WNW 19:55:58 70° SSW 20:00:06 10° ESE
SPOT 1/Viking Rocket 3.8 19:50:51 10° S 19:55:59 71° WSW 20:01:10 10° NNW
Cosmos 1486 Rocket 4.2 19:50:42 10° NNW 19:56:00 71° WSW 20:01:13 10° SSE
SL-27 R/B 3.5 19:52:43 10° NW 19:56:07 41° WSW 19:59:26 10° S
Cosmos 2263 4.4 19:51:36 10° S 19:57:02 53° ESE 20:02:29 10° NE
Cosmos 1092 Rocket 4.0 19:51:23 10° S 19:57:31 83° E 20:03:44 10° NNE
Cosmos 1025 Rocket 4.1 19:53:50 10° SSE 19:57:32 29° E 20:01:16 10° NNE
Cosmos 1354 Rocket 4.2 19:52:44 10° NNW 19:58:03 70° ENE 20:03:14 11° SE
STARLINK-1236 3.8 19:54:05 10° W 19:58:15 80° N 20:02:25 10° E
Cosmos 1842 3.3 19:54:27 10° S 19:58:18 67° E 20:02:10 10° NNE
COSMOS 2487 3.1 19:56:17 10° NNW 19:59:37 43° ENE 20:02:44 11° SE
Cosmos 1975 Rocket 3.0 19:55:25 10° S 19:59:49 79° E 20:04:13 10° NNE
STARLINK-1198 3.7 19:56:50 10° WNW 20:00:58 67° SSW 20:05:04 10° ESE
Cosmos 2297 Rocket 4.0 19:57:33 10° NNW 20:02:04 24° NE 20:06:36 10° E
Cosmos 292 Rocket 3.8 19:58:07 10° S 20:02:54 65° ESE 20:07:44 10° NNE
STARLINK-1212 4.3 20:00:24 10° W 20:03:02 25° SW 20:05:19 12° SSE
STARLINK-1105 4.3 20:01:02 10° W 20:03:39 24° SW 20:05:55 12° SSE
Cosmos 1943 Rocket 2.3 19:58:33 10° SSW 20:04:08 81° WNW 20:09:48 10° NNE
STARLINK-1247 4.4 20:02:11 10° W 20:04:48 24° SW 20:07:02 12° SSE
STARLINK-1227 4.4 20:02:46 10° W 20:05:23 24° SW 20:07:36 12° SSE
STARLINK-1199 3.7 20:01:48 10° WNW 20:05:55 64° SSW 20:10:01 10° ESE
STARLINK-1226 4.4 20:03:55 10° W 20:06:32 24° SW 20:08:42 12° SSE
STARLINK-1215 4.4 20:05:02 10° W 20:07:38 23° SW 20:09:48 13° SSE
STARLINK-1269 3.7 20:04:04 10° W 20:08:13 82° N 20:12:23 10° E
Cosmos 1992 Rocket 4.3 20:03:21 10° S 20:08:19 47° ESE 20:13:19 10° NE
Cosmos 1953 3.3 20:04:40 10° N 20:08:22 35° ENE 20:11:39 12° SE
RESURS DK-1 4.2 20:06:49 11° SE 20:08:47 15° ESE 20:11:08 10° ENE
STARLINK-1217 4.5 20:07:17 10° W 20:09:50 23° SW 20:11:56 13° SSE
ERBS 3.8 20:07:18 10° WNW 20:10:25 36° N 20:13:32 10° ENE
NOSS 2-2 (C) 4.4 20:07:07 10° WSW 20:10:42 49° NW 20:14:59 10° NE
STARLINK-1210 3.7 20:06:47 10° WNW 20:10:53 61° SSW 20:14:52 11° ESE
Cosmos 1271 Rocket 3.2 20:07:48 10° S 20:11:32 46° E 20:15:22 10° NNE
Lacrosse 4 Rocket 4.0 20:08:50 10° NNW 20:11:37 16° NNE 20:14:20 10° ENE
Cosmos 1833 4.3 20:05:59 10° NW 20:11:37 73° WSW 20:16:55 12° SSE
STARLINK-1200 3.7 20:09:02 10° W 20:13:12 83° N 20:17:22 10° E
STARLINK-1219 3.8 20:11:48 10° WNW 20:15:53 58° SSW 20:19:42 12° SE
ATLAS 2AS CENTAUR R/B 3.1 20:09:15 10° SSW 20:17:05 62° SE 20:24:50 10° NE
SL-4 R/B 2.4 20:12:55 10° WSW 20:17:37 62° SSE 20:22:25 10° E
STARLINK-1192 3.7 20:14:02 10° W 20:18:12 84° N 20:22:22 10° E
Timation 2 Rocket 4.5 20:12:36 10° NNW 20:18:51 54° NE 20:24:49 10° SE
NOSS 5 (C) 4.3 20:16:33 10° NW 20:19:38 89° SW 20:22:46 14° SE
STARLINK-1211 3.8 20:16:47 10° WNW 20:20:50 55° SSW 20:24:28 13° SE
Cosmos 1242 Rocket 2.5 20:18:58 10° S 20:22:39 87° E 20:26:22 10° NNE
STARLINK-1244 3.6 20:19:00 10° W 20:23:10 86° N 20:27:20 10° E
Cosmos 1707 3.1 20:20:12 13° SSE 20:23:28 46° E 20:27:12 10° NNE
Cosmos 1656 Rocket 3.7 20:17:57 10° SSW 20:23:28 60° ESE 20:28:56 10° NE
Meteor 2-13 Rocket 4.5 20:18:01 10° S 20:24:11 87° E 20:30:23 10° NNE
ERS-1 Rocket 3.5 20:19:29 10° S 20:24:25 55° W 20:29:24 10° NNW
Cosmos 1455 Rocket 3.7 20:20:48 10° NNW 20:25:02 52° W 20:29:14 10° S
STARLINK-1245 3.9 20:21:44 10° WNW 20:25:47 53° SSW 20:29:14 14° SE
STARLINK-29 3.0 20:23:24 10° SW 20:26:33 55° SSE 20:29:44 10° ENE
Cosmos 1758 3.4 20:23:21 10° NNW 20:27:27 83° W 20:31:01 13° S
STARLINK-1138 3.6 20:23:58 10° W 20:28:08 87° NNE 20:32:18 10° E
Meteor 1-16 Rocket 4.5 20:23:53 10° N 20:29:16 54° ENE 20:33:42 14° SSE
STARLINK-1233 3.9 20:26:44 10° WNW 20:30:45 50° SSW 20:34:01 15° SE
STARLINK-1373 4.5 20:28:21 10° SSW 20:31:44 27° SE 20:35:08 10° E
S3M 4.1 20:25:47 10° N 20:31:59 73° ENE 20:37:28 14° SSE
STARLINK-1143 3.6 20:28:58 10° W 20:33:08 89° NNE 20:37:18 10° ESE
Cosmos 968 Rocket 4.2 20:28:25 10° NW 20:33:18 44° WSW 20:37:57 11° S
Meteor 2-8 Rocket 4.5 20:29:06 10° N 20:35:17 80° E 20:40:39 14° SSE
Cosmos 2026 Rocket 4.3 20:29:18 10° SSW 20:35:37 74° WNW 20:42:03 10° N
Meteor 1-21 4.3 20:30:03 10° SSW 20:35:40 85° W 20:41:19 10° NNE
STARLINK-1204 4.0 20:31:42 10° WNW 20:35:42 47° SSW 20:38:47 16° SE
STARLINK-1390 4.4 20:32:46 10° SSW 20:36:12 28° SE 20:39:40 10° E
ATLAS CENTAUR R/B 1.3 20:32:32 10° SSW 20:36:50 64° SE 20:40:52 10° NE
STARLINK-1241 3.6 20:33:58 10° WNW 20:38:08 89° S 20:42:17 10° ESE
Cosmos 2369 Rocket 2.7 20:33:57 10° SW 20:39:34 65° NW 20:45:12 10° NNE
Cosmos 1867 4.4 20:34:47 10° NW 20:39:54 41° WSW 20:44:11 14° S
Cosmos 2227 Rocket 3.6 20:35:10 10° NNW 20:40:16 32° NE 20:45:20 10° ESE
STARLINK-1238 4.1 20:36:43 10° WNW 20:40:40 45° SSW 20:43:34 17° SE
SJ 16-02 3.6 20:37:42 10° N 20:40:45 18° NE 20:43:48 10° E
STARLINK-1365 4.3 20:38:16 10° SSW 20:41:51 31° SE 20:45:26 10° E
STARLINK-1320 3.6 20:39:32 10° SSW 20:42:18 30° SSE 20:45:06 10° E
Cosmos 1553 Rocket 4.1 20:36:13 10° NNW 20:42:29 75° W 20:48:07 13° S
STARLINK-1322 3.6 20:39:52 10° SSW 20:42:39 30° SSE 20:45:27 10° E
STARLINK-1324 3.6 20:40:10 10° SSW 20:42:57 30° SSE 20:45:45 10° E
STARLINK-1239 3.6 20:38:57 10° WNW 20:43:07 87° SSW 20:47:16 10° ESE
STARLINK-1294 3.6 20:40:30 10° SSW 20:43:16 30° SSE 20:46:05 10° E
STARLINK-1261 3.6 20:40:51 10° SSW 20:43:39 30° SSE 20:46:27 10° E
STARLINK-1325 3.6 20:41:12 10° SSW 20:44:00 31° SSE 20:46:49 10° E
STARLINK-1333 3.6 20:41:34 10° SSW 20:44:22 31° SSE 20:47:11 10° E
STARLINK-1334 3.6 20:41:51 10° SSW 20:44:39 31° SSE 20:47:28 10° E
STARLINK-1326 3.6 20:42:10 10° SSW 20:44:59 31° SSE 20:47:48 10° E
STARLINK-1323 3.6 20:42:32 10° SSW 20:45:21 31° SSE 20:48:10 10° E
STARLINK-1349 3.6 20:42:49 10° SSW 20:45:38 31° SSE 20:48:27 10° E
STARLINK-1201 4.1 20:41:42 10° W 20:45:38 42° SSW 20:48:22 18° SSE
STARLINK-1336 3.6 20:43:09 10° SW 20:45:59 31° SSE 20:48:48 10° E
STARLINK-1331 3.6 20:43:32 10° SW 20:46:21 32° SSE 20:49:11 10° E
STARLINK-1344 3.6 20:43:50 10° SW 20:46:40 32° SSE 20:49:30 10° E
STARLINK-1343 3.6 20:44:12 10° SW 20:47:02 32° SSE 20:49:52 10° E
STARLINK-1346 3.6 20:44:29 10° SW 20:47:19 32° SSE 20:50:11 10° E
STARLINK-1328 3.5 20:44:55 10° SW 20:47:44 32° SSE 20:50:35 10° E
STARLINK-1354 3.5 20:45:12 10° SW 20:48:02 32° SSE 20:50:53 10° E
STARLINK-1240 3.6 20:43:54 10° WNW 20:48:04 85° SSW 20:52:13 10° ESE
STARLINK-1347 3.5 20:45:30 10° SW 20:48:21 32° SSE 20:51:12 10° E
STARLINK-1357 3.5 20:45:54 10° SW 20:48:45 33° SSE 20:51:36 10° E
STARLINK-1335 3.5 20:46:11 10° SW 20:49:02 33° SSE 20:51:53 10° E
STARLINK-1327 3.5 20:46:32 10° SW 20:49:23 33° SSE 20:52:15 10° E
STARLINK-1340 3.5 20:46:50 10° SW 20:49:41 33° SSE 20:52:33 10° E
STARLINK-1356 3.5 20:47:12 10° SW 20:50:04 33° SSE 20:52:55 10° E
STARLINK-1345 3.5 20:47:31 10° SW 20:50:22 33° SSE 20:53:14 10° E
STARLINK-1206 4.2 20:46:40 10° W 20:50:34 40° SSW 20:53:07 19° SSE
STARLINK-1355 3.5 20:47:52 10° SW 20:50:43 34° SSE 20:53:35 10° E
STARLINK-1321 3.5 20:48:12 10° SW 20:51:04 34° SSE 20:53:56 10° E
STARLINK-1358 3.5 20:48:35 10° SW 20:51:26 34° SSE 20:54:19 10° E
STARLINK-1332 3.5 20:48:52 10° SW 20:51:44 34° SSE 20:54:36 10° E
STARLINK-1348 3.5 20:49:12 10° SW 20:52:04 34° SSE 20:54:57 10° E
STARLINK-1330 3.4 20:49:32 10° SW 20:52:24 34° SSE 20:55:17 10° E
STARLINK-1363 3.4 20:49:51 10° SW 20:52:44 34° SSE 20:55:37 10° E
STARLINK-1216 3.5 20:48:54 10° WNW 20:53:04 82° SSW 20:57:12 10° ESE
STARLINK-1337 3.4 20:50:14 10° SW 20:53:06 35° SSE 20:56:00 10° E
STARLINK-1338 4.1 20:49:46 10° SSW 20:53:24 35° SSE 20:57:01 10° E
STARLINK-1342 3.4 20:50:33 10° SW 20:53:25 35° SSE 20:56:19 10° E
STARLINK-1364 3.4 20:50:53 10° SW 20:53:46 35° SSE 20:56:39 10° E
STARLINK-1376 3.4 20:51:13 10° SW 20:54:06 35° SSE 20:57:00 10° E
STARLINK-1360 3.4 20:51:33 10° SW 20:54:26 35° SSE 20:57:20 10° E
STARLINK-1361 3.4 20:51:53 10° SW 20:54:46 35° SSE 20:57:41 10° E
STARLINK-1367 3.4 20:52:09 10° SW 20:55:04 36° SSE 20:57:59 10° E
STARLINK-1366 3.4 20:52:31 10° SW 20:55:25 36° SSE 20:58:20 10° E
STARLINK-1205 4.3 20:51:40 10° W 20:55:31 37° SSW 20:57:54 20° SSE
Cosmos 1777 Rocket 4.1 20:50:18 10° NNW 20:55:34 79° ENE 20:59:37 17° SSE
STARLINK-1237 3.5 20:53:52 10° WNW 20:58:02 80° SSW 21:02:11 10° ESE
Cosmos 1908 3.6 20:55:18 10° N 20:59:03 50° ENE 21:01:28 20° SE
Cosmos 1536 Rocket 3.6 20:55:59 13° SSW 20:59:49 84° W 21:04:15 10° N
Cosmos 2084 3.9 20:56:25 11° SSW 21:00:22 43° SE 21:04:37 10° NE
STARLINK-1218 4.4 20:56:41 10° W 21:00:29 35° SSW 21:02:41 20° SSE
STARLINK-1371 3.9 20:57:34 10° SW 21:01:13 38° SSE 21:04:53 10° E
STARLINK-52 2.8 20:58:40 10° WSW 21:01:53 75° SSE 21:05:06 10° ENE
STARLINK-1202 3.5 20:58:52 10° WNW 21:03:01 77° SSW 21:07:09 10° ESE
SPOT 5 4.4 20:58:18 10° SSW 21:03:05 33° W 21:07:55 10° NNW
ATLAS CENTAUR R/B 1.5 21:01:54 10° NW 21:03:43 42° NNE 21:06:19 10° E
In-Cosmos 22 4.1 20:59:51 16° S 21:04:06 68° E 21:09:24 10° NNE
CENTAUR R/B 4.2 20:57:12 10° NW 21:04:16 34° WSW 21:11:10 12° S
JB-3 4.4 21:00:12 10° NNE 21:04:22 88° ESE 21:07:38 16° SSW
Thor Agena Rocket 3.8 21:00:01 10° NNE 21:05:15 55° ESE 21:09:05 18° S
STARLINK-1254 4.5 21:01:42 10° W 21:05:26 33° SW 21:07:28 21° SSE
STARLINK-1341 3.9 21:01:45 10° SW 21:05:27 40° SSE 21:09:09 10° E
USA 215 3.6 20:59:42 10° E 21:06:13 69° NNE 21:12:43 10° WNW
Terra 3.0 21:02:43 11° SSW 21:06:53 36° W 21:11:17 10° NNW
STARLINK-1203 3.5 21:03:03 10° WNW 21:07:09 74° SSW 21:11:02 11° ESE
BREEZE-M DEB 3.5 21:04:45 10° WSW 21:07:55 63° SSE 21:17:56 10° E
Cosmos 2266 Rocket 4.0 21:03:13 16° S 21:08:11 72° E 21:14:13 10° NNE
KORONAS-FOTON 4.4 21:07:03 21° SSE 21:09:11 42° E 21:12:52 10° NNE
Cosmos 2292 Rocket 2.8 21:08:27 24° S 21:10:09 59° E 21:13:06 10° NNE
STARLINK-1374 3.8 21:06:30 10° SW 21:10:17 43° SSE 21:14:04 10° E
Cosmos 1300 4.2 21:08:31 10° N 21:11:48 26° ENE 21:14:16 14° ESE
Cosmos 1726 2.6 21:08:35 10° NNW 21:12:15 54° W 21:14:42 19° SSW
STARLINK-1246 3.5 21:08:49 10° WNW 21:12:58 71° SSW 21:16:43 12° ESE
ATLAS 3B R/B 3.2 21:06:37 10° NW 21:13:04 47° WSW 21:18:07 18° S
STARLINK-1339 3.8 21:10:46 10° SW 21:14:34 45° SSE 21:18:23 10° ENE
Cosmos 1655 Rocket 4.1 21:09:11 12° SSW 21:15:02 81° W 21:21:23 10° N
STARLINK-1224 3.6 21:13:47 10° WNW 21:17:55 68° SSW 21:21:29 14° ESE
STARLINK-1377 3.7 21:15:02 10° SW 21:18:52 47° SSE 21:22:43 10° ENE
Cosmos 1674 2.8 21:18:37 23° S 21:20:47 60° E 21:24:33 10° NNE
STARLINK-1444 2.1 21:19:42 10° W 21:21:49 72° N 21:24:00 10° E
STARLINK-1452 2.1 21:20:21 10° W 21:22:27 72° N 21:24:37 10° E
STARLINK-1225 3.6 21:18:47 10° WNW 21:22:54 65° SSW 21:26:17 15° ESE
STARLINK-1353 3.6 21:19:18 10° SW 21:23:09 50° SSE 21:27:02 10° ENE
STARLINK-1392 2.0 21:21:16 10° W 21:23:19 71° N 21:25:27 10° E
STARLINK-1399 2.0 21:21:17 10° W 21:23:21 71° N 21:25:29 10° E
STARLINK-1393 2.0 21:21:19 10° W 21:23:23 71° N 21:25:31 10° E
STARLINK-1394 2.0 21:21:20 10° W 21:23:24 71° N 21:25:32 10° E
STARLINK-1395 2.0 21:21:26 10° W 21:23:27 71° N 21:25:33 10° E
STARLINK-1397 2.0 21:21:24 10° W 21:23:27 71° N 21:25:35 10° E
STARLINK-1396 2.0 21:21:24 10° W 21:23:28 71° N 21:25:36 10° E
STARLINK-1414 2.0 21:21:25 10° W 21:23:28 71° N 21:25:35 10° E
STARLINK-1408 2.0 21:21:28 10° W 21:23:31 71° N 21:25:38 10° E
STARLINK-1404 2.0 21:21:28 10° W 21:23:32 71° N 21:25:40 10° E
STARLINK-1416 2.0 21:21:29 10° W 21:23:33 71° N 21:25:40 10° E
STARLINK-1415 2.0 21:21:29 10° W 21:23:34 71° N 21:25:42 10° E
STARLINK-1450 2.0 21:21:30 10° W 21:23:35 71° N 21:25:43 10° E
STARLINK-1406 2.0 21:21:33 10° W 21:23:36 71° N 21:25:44 10° E
STARLINK-1401 2.0 21:21:32 10° W 21:23:36 71° N 21:25:46 10° E
STARLINK-1417 2.0 21:21:36 10° W 21:23:40 71° N 21:25:49 10° E
STARLINK-1402 2.0 21:21:37 10° W 21:23:41 71° N 21:25:50 10° E
STARLINK-1413 2.0 21:21:37 10° W 21:23:42 71° N 21:25:50 10° E
STARLINK-1419 2.0 21:21:37 10° W 21:23:42 71° N 21:25:49 10° E
STARLINK-1422 2.0 21:21:43 10° W 21:23:47 71° N 21:25:55 10° E
STARLINK-1453 2.0 21:21:43 10° W 21:23:48 71° N 21:25:57 10° E
STARLINK-1398 2.1 21:21:43 10° W 21:23:49 71° N 21:25:58 10° E
STARLINK-1440 2.0 21:21:46 10° W 21:23:51 71° N 21:25:59 10° E
STARLINK-1420 2.0 21:21:46 10° W 21:23:51 71° N 21:25:59 10° E
STARLINK-1436 (VISORSAT) 2.1 21:21:46 10° W 21:23:52 71° N 21:26:01 10° E
STARLINK-1460 2.0 21:21:48 10° W 21:23:53 71° N 21:26:01 10° E
STARLINK-1410 2.0 21:21:53 10° W 21:23:58 71° N 21:26:06 10° E
STARLINK-1423 2.0 21:21:55 10° W 21:23:58 71° N 21:26:06 10° E
STARLINK-1421 2.0 21:21:55 10° W 21:23:58 71° N 21:26:06 10° E
STARLINK-1400 2.0 21:21:54 10° W 21:23:58 71° N 21:26:07 10° E
STARLINK-1454 2.0 21:21:55 10° W 21:23:59 71° N 21:26:07 10° E
STARLINK-1458 2.0 21:21:57 10° W 21:24:00 71° N 21:26:09 10° E
STARLINK-1445 2.0 21:21:59 10° W 21:24:04 71° N 21:26:12 10° E
STARLINK-1446 2.0 21:22:01 10° W 21:24:06 71° N 21:26:15 10° E
STARLINK-1407 2.0 21:22:01 10° W 21:24:06 71° N 21:26:15 10° E
STARLINK-1405 2.0 21:22:05 10° W 21:24:07 71° N 21:26:13 10° E
STARLINK-1370 2.0 21:22:04 10° W 21:24:08 71° N 21:26:17 10° E
STARLINK-1456 2.0 21:22:05 10° W 21:24:09 71° N 21:26:17 10° E
STARLINK-1457 2.0 21:22:05 10° W 21:24:09 71° N 21:26:17 10° E
STARLINK-1451 2.0 21:22:05 10° W 21:24:10 71° N 21:26:17 10° E
STARLINK-1439 2.0 21:22:08 10° W 21:24:10 71° N 21:26:16 10° E
STARLINK-1409 2.0 21:22:06 10° W 21:24:11 71° N 21:26:18 10° E
STARLINK-1437 2.0 21:22:06 10° W 21:24:11 71° N 21:26:19 10° E
STARLINK-1447 2.0 21:22:06 10° W 21:24:11 71° N 21:26:19 10° E
STARLINK-1455 2.0 21:22:06 10° W 21:24:11 71° N 21:26:19 10° E
STARLINK-1441 2.0 21:22:08 10° W 21:24:13 71° N 21:26:22 10° E
STARLINK-1443 2.1 21:22:10 10° W 21:24:15 71° N 21:26:24 10° E
STARLINK-1351 2.0 21:22:12 10° W 21:24:17 71° N 21:26:26 10° E
STARLINK-1418 2.0 21:22:13 10° W 21:24:17 71° N 21:26:26 10° E
STARLINK-1442 2.0 21:22:13 10° W 21:24:18 71° N 21:26:27 10° E
STARLINK-1403 2.1 21:22:13 10° W 21:24:18 71° N 21:26:27 10° E
STARLINK-1434 2.1 21:22:13 10° W 21:24:18 71° N 21:26:27 10° E
STARLINK-1448 2.0 21:22:15 10° W 21:24:20 71° N 21:26:28 10° E
STARLINK-1433 2.0 21:22:16 10° W 21:24:21 71° N 21:26:30 10° E
STARLINK-1449 2.1 21:22:17 10° W 21:24:22 71° N 21:26:31 10° E
STARLINK-1438 2.0 21:22:21 10° W 21:24:25 71° N 21:26:33 10° E
STARLINK-1411 2.0 21:22:27 10° W 21:24:32 71° N 21:26:41 10° E
STARLINK-1412 2.1 21:22:27 10° W 21:24:32 71° N 21:26:41 10° E
SeaSat 1 3.2 21:20:39 10° NE 21:25:11 35° ESE 21:27:48 21° SSE
BREEZE-M DEB (TANK) 3.0 21:15:06 10° W 21:25:14 66° S 21:28:24 10° E
STARLINK-1375 3.6 21:23:36 10° SW 21:27:30 52° SSE 21:31:23 10° ENE
STARLINK-1230 3.6 21:23:45 10° WNW 21:27:51 62° SSW 21:31:02 16° SE
BREEZE-M DEB (TANK) 3.1 21:23:06 10° SW 21:28:10 27° SSE 21:30:43 10° ESE
FALCON 9 DEB 3.0 21:25:01 10° WSW 21:28:27 78° SSE 21:31:54 10° ENE
Cosmos 1606 Rocket 3.5 21:24:14 10° N 21:28:36 88° W 21:31:19 23° S
Cosmos 1340 Rocket 3.9 21:25:40 10° NNW 21:29:28 38° W 21:32:10 17° SSW
BREEZE-M DEB (TANK) 3.3 21:26:12 10° W 21:29:35 42° SSW 21:32:59 14° SE
Cosmos 2058 Rocket 3.5 21:25:23 10° N 21:29:47 53° ENE 21:32:37 21° SE
STARLINK-60 3.1 21:26:49 10° W 21:29:59 75° N 21:33:11 10° E
Cosmos 1174 4.4 21:27:55 10° WSW 21:31:16 54° NW 21:35:22 10° NE
STARLINK-1350 3.6 21:27:52 10° SW 21:31:47 55° SSE 21:35:42 10° ENE
STARLINK-1243 3.6 21:28:45 10° WNW 21:32:51 59° SSW 21:35:50 17° SE
COSMOS 2455 3.0 21:26:58 10° SW 21:32:59 76° NW 21:39:04 10° NE
Cosmos 1025 Rocket 4.4 21:31:06 10° SW 21:35:03 35° WNW 21:39:04 10° N
STARLINK-1352 3.5 21:32:14 10° SW 21:36:10 57° SSE 21:40:06 10° ENE
STARLINK-1236 3.7 21:33:43 10° WNW 21:37:48 56° SSW 21:40:36 19° SE
NOSS 3-4 (A) 3.9 21:33:44 10° WSW 21:39:44 64° NW 21:46:16 10° NE
NOSS 3-4 (C) 3.9 21:33:50 10° WSW 21:39:50 65° NW 21:46:22 10° NE
ALOS 2 2.6 21:37:12 23° SSE 21:39:56 75° ENE 21:44:21 10° NNW
STARLINK-1368 3.5 21:36:37 10° SW 21:40:33 60° SSE 21:44:30 10° ENE
Aureole 3 3.7 21:38:05 10° NNW 21:40:55 35° W 21:42:17 22° SW
STARLINK-1369 3.4 21:40:31 10° WSW 21:44:26 62° SSE 21:48:21 10° ENE
Cosmos 1953 4.0 21:41:20 10° NNW 21:44:37 25° W 21:47:21 13° SW
ATLAS 5 CENTAUR R/B 0.8 21:42:28 10° SW 21:46:08 89° SE 21:48:12 10° NE
RESURS DK-1 2.4 21:42:39 13° SW 21:46:15 78° WNW 21:50:25 10° NNE
EXPRESS MD2 4.4 21:42:28 10° W 21:46:56 67° S 21:56:27 10° ESE
ERBS 2.2 21:43:39 10° WNW 21:47:00 88° NNE 21:49:21 18° ESE
Cosmos 2297 Rocket 2.2 21:41:18 10° NNW 21:47:00 83° ENE 21:51:12 19° SSE
STARLINK-1269 3.8 21:43:42 10° WNW 21:47:44 51° SSW 21:50:10 22° SE
Cosmos 1626 2.6 21:46:19 26° SSE 21:48:00 46° E 21:51:35 10° NNE
Meteor 1-24 Rocket 3.9 21:44:56 22° SSE 21:48:22 56° E 21:53:50 10° NNE
CZ-4C R/B 3.3 21:46:27 19° SE 21:48:28 24° ESE 21:53:05 10° ENE
STARLINK-1372 3.4 21:44:55 10° WSW 21:48:51 65° SSE 21:52:47 10° ENE
Cosmos 1898 Rocket 4.1 21:45:23 10° NNW 21:50:37 53° ENE 21:54:58 15° SE
Cosmos 2219 3.2 21:45:07 10° NNW 21:50:48 80° WSW 21:54:40 21° SSE
Lacrosse 4 Rocket 2.1 21:47:00 10° NNW 21:51:17 53° NE 21:54:46 14° ESE
Cosmos 2228 3.4 21:47:26 10° NNW 21:51:36 53° W 21:54:03 23° SSW
STARLINK-1200 3.9 21:48:41 10° WNW 21:52:41 48° SSW 21:54:57 23° SE
Spot 4 4.4 21:50:03 20° SSW 21:53:09 48° W 21:57:51 10° NNW
STARLINK-1378 3.4 21:49:17 10° WSW 21:53:14 67° SSE 21:57:12 10° ENE
Cosmos 921 Rocket 3.0 21:52:46 24° S 21:55:20 72° ESE 21:59:45 10° NNE
Cosmos 220 Rocket 4.1 21:52:57 23° S 21:55:35 67° ESE 22:00:02 10° NNE
SL-4 R/B 2.3 21:52:28 10° W 21:57:20 85° S 22:02:10 10° E
STARLINK-1192 3.9 21:53:41 10° WNW 21:57:40 46° SSW 21:59:44 24° SSE
STARLINK-1379 3.4 21:53:44 10° WSW 21:57:42 70° SSE 22:01:41 10° ENE
Cosmos 990 Rocket 4.3 21:55:20 10° NNW 22:00:35 64° ENE 22:04:34 17° SE
Cosmos 2082 4.1 21:55:44 10° NNW 22:01:22 61° NE 22:06:20 13° SE
STARLINK-1329 3.4 21:57:26 10° WSW 22:01:25 72° SSE 22:05:25 10° ENE
EO 1 Del DPAF 4.1 21:58:33 10° N 22:02:11 45° WNW 22:04:56 16° SW
STARLINK-1244 4.0 21:58:39 10° WNW 22:02:36 43° SSW 22:04:30 26° SSE
STARLINK-29 3.1 21:59:27 10° W 22:02:41 75° N 22:05:53 10° E
SL-4 R/B 1.2 22:03:44 39° WSW 22:03:49 39° WSW 22:05:54 10° NNW
STARLINK-1362 3.4 22:01:55 10° WSW 22:05:54 75° SSE 22:09:55 10° ENE
STARLINK-1138 4.1 22:03:38 10° W 22:07:33 41° SSW 22:09:16 27° SSE
ATLAS 2AS CENTAUR R/B 3.8 22:00:30 10° WSW 22:08:22 56° NNW 22:16:03 10° NE
STARLINK-1373 3.4 22:06:23 10° WSW 22:10:23 77° SSE 22:14:23 10° ENE
Cosmos 1726 Rocket 4.3 22:07:40 10° NNW 22:11:46 42° W 22:14:12 21° SSW
STARLINK-1143 4.1 22:08:39 10° W 22:12:31 38° SSW 22:14:04 27° SSE
Okean 1-7 Rocket 3.6 22:09:54 24° S 22:12:35 90° SSE 22:17:12 10° N
Helios 1A 2.9 22:10:55 26° SSE 22:13:16 89° ENE 22:17:28 10° NNW
STARLINK-1390 3.4 22:10:54 10° WSW 22:14:54 80° SSE 22:18:55 10° ENE
Cosmos 1697 Rocket 3.7 22:12:54 20° SSE 22:15:51 31° ESE 22:20:46 10° NE
ATLAS CENTAUR R/B 3.4 22:12:20 10° W 22:16:01 29° NNW 22:19:32 10° NNE
BREEZE-M R/B 3.8 22:09:17 10° SW 22:17:04 48° SSE 22:20:56 10° E
Cosmos 1892 Rocket 3.7 22:14:31 23° SSW 22:17:12 68° WNW 22:21:34 10° N
STARLINK-1241 4.2 22:13:40 10° W 22:17:29 36° SSW 22:18:51 28° S
STARLINK-1320 2.8 22:14:47 10° WSW 22:17:55 89° NNE 22:21:03 10° ENE
STARLINK-1322 2.8 22:15:08 10° WSW 22:18:16 89° N 22:21:24 10° ENE
STARLINK-1324 2.8 22:15:26 10° WSW 22:18:34 89° N 22:21:42 10° ENE
STARLINK-1294 2.8 22:15:46 10° WSW 22:18:53 89° NNW 22:22:02 10° ENE
STARLINK-1261 2.8 22:16:08 10° WSW 22:19:16 88° NNW 22:22:24 10° ENE
STARLINK-1325 2.8 22:16:30 10° WSW 22:19:37 88° NNW 22:22:46 10° ENE
SJ 16-02 1.3 22:15:30 10° NNW 22:19:59 85° WSW 22:22:33 25° SSE
STARLINK-1333 2.8 22:16:52 10° WSW 22:20:00 88° N 22:23:08 10° ENE
STARLINK-1334 2.8 22:17:09 10° WSW 22:20:16 88° NNW 22:23:25 10° ENE
STARLINK-1326 2.8 22:17:28 10° WSW 22:20:36 88° NNW 22:23:44 10° ENE
STARLINK-1365 3.4 22:16:40 10° WSW 22:20:43 84° SSE 22:24:46 10° ENE
STARLINK-1323 2.8 22:17:51 10° WSW 22:20:59 88° N 22:24:07 10° ENE
STARLINK-1349 2.8 22:18:08 10° WSW 22:21:15 87° NNW 22:24:23 10° ENE
STARLINK-1336 2.8 22:18:28 10° W 22:21:36 87° N 22:24:45 10° ENE
STARLINK-1331 2.8 22:18:51 10° W 22:21:59 87° NNW 22:25:07 10° ENE
STARLINK-1344 2.8 22:19:10 10° W 22:22:18 87° N 22:25:26 10° ENE
STARLINK-1239 4.3 22:18:40 10° W 22:22:26 34° SW 22:23:39 28° S
STARLINK-1343 2.8 22:19:32 10° W 22:22:39 87° NNW 22:25:48 10° ENE
STARLINK-1346 2.8 22:19:49 10° W 22:22:57 87° NNW 22:26:08 10° ENE
STARLINK-1328 2.8 22:20:15 10° W 22:23:23 86° N 22:26:32 10° E
STARLINK-1354 2.8 22:20:33 10° W 22:23:40 86° NNW 22:26:49 10° E
STARLINK-1347 2.8 22:20:51 10° W 22:23:59 86° N 22:27:07 10° E
STARLINK-1357 2.8 22:21:15 10° W 22:24:23 86° NNW 22:27:32 10° E
Cosmos 1437 2.5 22:23:34 37° SSW 22:24:37 84° WNW 22:27:39 10° NNE
STARLINK-1335 2.8 22:21:33 10° W 22:24:40 86° NNW 22:27:49 10° E
Cosmos 2227 Rocket 2.3 22:19:07 10° NW 22:24:45 65° WSW 22:28:22 22° S
STARLINK-1327 2.8 22:21:54 10° W 22:25:02 86° N 22:28:10 10° E
STARLINK-1340 2.8 22:22:12 10° W 22:25:20 86° N 22:28:28 10° E
STARLINK-1356 2.8 22:22:35 10° W 22:25:43 85° N 22:28:51 10° E
STARLINK-1345 2.8 22:22:53 10° W 22:26:01 85° N 22:29:09 10° E
STARLINK-1355 2.8 22:23:15 10° W 22:26:23 85° N 22:29:31 10° E
STARLINK-1321 2.8 22:23:35 10° W 22:26:43 85° NNW 22:29:51 10° E
STARLINK-1358 2.8 22:23:59 10° W 22:27:06 85° N 22:30:14 10° E
STARLINK-1240 4.4 22:23:38 10° W 22:27:21 32° SW 22:28:23 28° S
STARLINK-1332 2.8 22:24:16 10° W 22:27:24 85° N 22:30:32 10° E
STARLINK-1348 2.8 22:24:36 10° W 22:27:44 84° N 22:30:52 10° E
STARLINK-1330 2.8 22:24:56 10° W 22:28:04 84° NNW 22:31:12 10° E
STARLINK-1363 2.8 22:25:16 10° W 22:28:24 84° N 22:31:32 10° E
Cosmos 1763 Rocket 4.1 22:25:57 23° SSE 22:28:41 41° ESE 22:33:26 10° NE
STARLINK-1337 2.8 22:25:38 10° W 22:28:46 84° NNW 22:31:54 10° E
STARLINK-1342 2.8 22:25:58 10° W 22:29:06 84° N 22:32:14 10° E
STARLINK-1364 2.8 22:26:17 10° W 22:29:26 84° N 22:32:34 10° E
STARLINK-1376 2.8 22:26:38 10° W 22:29:46 84° NNW 22:32:54 10° E
STARLINK-1360 2.8 22:26:58 10° W 22:30:06 83° N 22:33:15 10° E
STARLINK-1361 2.8 22:27:19 10° W 22:30:27 83° N 22:33:35 10° E
STARLINK-1367 2.9 22:27:35 10° W 22:30:44 84° N 22:33:55 10° E
STARLINK-1366 2.9 22:27:58 10° W 22:31:06 83° N 22:34:14 10° E
STARLINK-1338 3.4 22:28:09 10° WSW 22:32:08 89° S 22:36:07 10° ENE
STARLINK-1216 4.5 22:28:40 10° W 22:32:19 30° SW 22:33:11 27° SSW
Landsat 4 3.7 22:28:59 10° NNE 22:32:42 66° ESE 22:34:25 29° S
SL-16 R/B 4.2 22:28:25 10° ESE 22:33:33 28° NE 22:38:42 10° N
Cosmos 2084 Rocket 3.6 22:29:47 10° NW 22:34:16 82° NE 22:38:30 12° SE
Cosmos 1356 Rocket 3.6 22:31:22 10° NNW 22:35:34 62° W 22:37:47 26° S
Nadezhda 1 Rocket 4.0 22:30:09 10° N 22:36:26 88° W 22:40:51 21° S
STARLINK-52 3.1 22:34:50 10° W 22:38:03 75° N 22:41:16 10° E
SL-14 R/B 3.7 22:36:22 23° SW 22:38:31 52° WNW 22:42:18 10° N
STARLINK-1371 3.4 22:35:49 10° WSW 22:39:45 88° NNW 22:43:41 10° E
Cosmos 2285 Rocket 4.1 22:35:12 10° NNW 22:41:37 77° ENE 22:47:05 14° SSE
CZ-4 R/B 4.2 22:38:19 10° NNE 22:42:58 51° E 22:45:38 23° SSE
STARLINK-1341 3.4 22:40:04 10° W 22:44:00 87° N 22:47:55 10° E
Meteor 2-16 Rocket 4.5 22:43:09 21° SSW 22:47:26 79° WNW 22:53:35 10° N
Cosmos 1300 3.9 22:44:04 10° NNW 22:47:29 31° W 22:49:12 21° SW
STARLINK-1374 3.5 22:45:10 10° W 22:49:10 85° N 22:53:10 10° E
USA 215 3.2 22:42:49 10° SE 22:49:19 65° SW 22:55:51 10° WNW
CZ-2D R/B 4.3 22:46:25 10° NE 22:49:20 15° E 22:52:15 10° ESE
Meteor 2-10 Rocket 3.5 22:45:30 10° NNW 22:50:42 81° ENE 22:54:08 21° SSE
STARLINK-1339 3.5 22:49:29 10° W 22:53:29 84° N 22:57:29 10° E
Cosmos-2242 3.6 22:50:24 10° N 22:54:35 52° ENE 22:57:34 18° SSE
STARLINK 1040 2.9 22:56:00 38° SE 22:56:00 38° SE 22:58:09 10° E
STARLINK-1444 1.8 22:53:35 10° WNW 22:55:46 87° SSW 22:56:39 31° ESE
Meteor 1-21 Rocket 4.5 22:52:02 21° S 22:55:47 64° E 23:01:33 10° NNE
STARLINK-1452 1.8 22:54:14 10° WNW 22:56:24 86° S 22:57:03 40° ESE
STARLINK-1392 1.7 22:55:06 10° WNW 22:57:12 86° SSW 22:57:12 86° SSW
STARLINK-1399 1.7 22:55:08 10° WNW 22:57:15 86° SSW 22:57:22 77° ESE
STARLINK-1393 1.7 22:55:10 10° WNW 22:57:17 86° SSW 22:57:20 83° SE
STARLINK-1394 1.7 22:55:11 10° WNW 22:57:18 85° SSW 22:57:21 83° SE
STARLINK-1395 1.9 22:55:15 10° WNW 22:57:08 68° W 22:57:08 68° W
STARLINK-1397 1.7 22:55:14 10° WNW 22:57:21 85° SSW 22:57:30 75° ESE
STARLINK-1396 1.7 22:55:15 10° WNW 22:57:22 85° SSW 22:57:27 79° SE
STARLINK-1414 1.7 22:55:15 10° WNW 22:57:21 85° SSW 22:57:21 85° SSW
STARLINK-1408 1.7 22:55:18 10° WNW 22:57:23 84° SW 22:57:23 84° SW
STARLINK-1404 1.7 22:55:19 10° WNW 22:57:27 85° SSW 22:57:34 77° ESE
STARLINK-1416 1.7 22:55:20 10° WNW 22:57:27 85° SSW 22:57:28 85° S
STARLINK-1415 1.7 22:55:21 10° WNW 22:57:29 85° S 22:57:42 67° ESE
STARLINK-1450 1.7 22:55:22 10° WNW 22:57:30 85° SSW 22:57:44 66° ESE
STARLINK-1406 1.7 22:55:24 10° WNW 22:57:26 81° WSW 22:57:26 81° WSW
STARLINK-1401 1.7 22:55:24 10° WNW 22:57:32 85° S 22:57:45 68° ESE
STARLINK-1417 1.7 22:55:27 10° WNW 22:57:35 85° S 22:57:49 66° ESE
STARLINK-1402 1.7 22:55:28 10° WNW 22:57:37 85° S 22:57:50 67° ESE
STARLINK-1413 1.7 22:55:28 10° WNW 22:57:37 85° S 22:57:50 67° ESE
STARLINK-1419 1.7 22:55:29 10° WNW 22:57:37 85° S 22:57:44 77° ESE
STARLINK-1422 1.7 22:55:34 10° WNW 22:57:43 85° S 22:57:54 69° ESE
STARLINK-1453 1.7 22:55:35 10° WNW 22:57:44 85° S 22:58:04 58° ESE
STARLINK-1398 1.8 22:55:36 10° WNW 22:57:45 85° SSW 22:58:14 48° ESE
STARLINK-1420 1.7 22:55:38 10° WNW 22:57:46 85° SSW 22:58:03 63° ESE
STARLINK-1440 1.7 22:55:39 10° WNW 22:57:48 85° SSW 22:58:06 60° ESE
STARLINK-1436 (VISORSAT) 1.8 22:55:39 10° WNW 22:57:48 85° SSW 22:58:19 47° ESE
STARLINK-1377 3.5 22:53:49 10° W 22:57:49 82° N 23:01:50 10° E
STARLINK-1460 1.7 22:55:41 10° WNW 22:57:49 85° SSW 22:58:05 63° ESE
STARLINK-1410 1.7 22:55:45 10° WNW 22:57:53 85° SSW 22:58:07 67° ESE
STARLINK-1421 1.7 22:55:46 10° WNW 22:57:54 85° S 22:58:00 78° SE
STARLINK-1400 1.7 22:55:46 10° WNW 22:57:54 85° SSW 22:58:08 65° ESE
STARLINK-1423 1.7 22:55:46 10° WNW 22:57:54 85° S 22:58:00 78° SE
STARLINK-1454 1.7 22:55:47 10° WNW 22:57:55 85° S 22:58:11 64° ESE
STARLINK-1458 1.7 22:55:50 10° WNW 22:57:57 85° SSW 22:58:07 72° ESE
STARLINK-1445 1.7 22:55:52 10° WNW 22:58:00 85° S 22:58:20 58° ESE
STARLINK-1407 1.7 22:55:54 10° WNW 22:58:02 85° SSW 22:58:19 62° ESE
STARLINK-1446 1.7 22:55:54 10° WNW 22:58:02 85° SSW 22:58:22 59° ESE
STARLINK-1405 1.8 22:55:56 10° WNW 22:57:52 71° W 22:57:52 71° W
STARLINK-1370 1.7 22:55:56 10° WNW 22:58:04 85° SSW 22:58:22 62° ESE
STARLINK-1456 1.7 22:55:57 10° WNW 22:58:06 85° S 22:58:16 71° ESE
STARLINK-1439 1.8 22:55:59 10° WNW 22:57:55 70° W 22:57:55 70° W
STARLINK-1457 1.7 22:55:57 10° WNW 22:58:06 85° S 22:58:17 71° ESE
STARLINK-1451 1.7 22:55:58 10° WNW 22:58:06 85° S 22:58:16 72° ESE
STARLINK-1409 1.7 22:55:58 10° WNW 22:58:06 85° SSW 22:58:17 71° ESE
STARLINK-1447 1.7 22:55:58 10° WNW 22:58:07 85° SSW 22:58:25 60° ESE
STARLINK-1455 1.7 22:55:59 10° WNW 22:58:08 85° S 22:58:25 61° ESE
STARLINK-1437 1.7 22:55:59 10° WNW 22:58:08 85° S 22:58:21 66° ESE
STARLINK-1441 1.7 22:56:01 10° WNW 22:58:10 85° S 22:58:28 59° ESE
STARLINK-1443 1.7 22:56:03 10° WNW 22:58:12 85° SSW 22:58:36 53° ESE
STARLINK-1403 1.7 22:56:06 10° WNW 22:58:14 85° SSW 22:58:36 56° ESE
STARLINK-1351 1.7 22:56:05 10° WNW 22:58:14 85° SSW 22:58:33 59° ESE
STARLINK-1418 1.7 22:56:05 10° WNW 22:58:14 85° SSW 22:58:32 61° ESE
STARLINK-1442 1.7 22:56:06 10° WNW 22:58:15 85° S 22:58:34 59° ESE
STARLINK-1434 1.7 22:56:06 10° WNW 22:58:15 85° S 22:58:38 54° ESE
STARLINK-1448 1.7 22:56:08 10° WNW 22:58:17 85° SSW 22:58:35 60° ESE
STARLINK-1433 1.7 22:56:09 10° WNW 22:58:18 85° SSW 22:58:35 62° ESE
STARLINK-1449 1.7 22:56:11 10° WNW 22:58:20 85° SSW 22:58:40 58° ESE
STARLINK-1438 1.7 22:56:14 10° WNW 22:58:22 85° SSW 22:58:32 73° ESE
STARLINK-1411 1.7 22:56:22 10° WNW 22:58:29 84° SSW 22:58:45 65° ESE
STARLINK-1412 1.7 22:56:22 10° WNW 22:58:30 84° SSW 22:58:49 59° ESE
Cosmos 1626 Rocket 3.7 22:57:33 24° SSW 23:00:05 69° WNW 23:04:29 10° N
NOSS 7 (H) 4.0 22:59:51 31° SW 23:01:08 76° SE 23:04:06 10° NE
STARLINK-1353 3.6 22:58:08 10° W 23:02:08 81° N 23:06:09 10° E
SeaSat 1 3.2 22:58:04 10° NNE 23:02:50 49° NW 23:07:34 10° WSW
STARLINK-42 4.2 23:03:38 24° SE 23:03:38 24° SE 23:05:54 10° E
Cosmos 540 Rocket 4.1 23:01:19 21° SSE 23:04:22 43° ESE 23:09:12 10° NE
SL-08 ROCKET BODY 4.4 23:01:21 21° SSW 23:05:22 77° WNW 23:11:16 10° N
FALCON 9 DEB 3.2 23:02:07 10° W 23:05:34 77° N 23:09:01 10° E
STARLINK-60 2.8 23:02:57 10° WNW 23:06:07 73° SSW 23:09:18 10° ESE
STARLINK-1375 3.6 23:02:29 10° W 23:06:30 81° N 23:10:31 10° E
STARLINK-41 4.1 23:07:32 24° SE 23:07:32 24° SE 23:09:46 10° E
FALCON 9 R/B 4.2 23:08:52 17° S 23:09:15 17° SSE 23:16:10 10° SE
Uosat 12 SS-18 rocket 4.3 23:06:19 10° NW 23:10:29 49° SW 23:13:05 22° S
STARLINK-1350 3.6 23:06:49 10° W 23:10:50 80° N 23:14:51 10° E
Helios 1B rocket 2.4 23:07:32 10° NNE 23:11:42 82° ESE 23:14:05 25° S
Cosmos 1980 Rocket 2.8 23:10:05 20° S 23:13:36 45° ESE 23:18:59 10° NE
STARLINK-1352 3.6 23:11:13 10° W 23:15:14 79° N 23:19:16 10° E
STARLINK-1290 4.5 23:16:01 24° SSE 23:16:42 25° SE 23:19:49 10° E
Cosmos 468 Rocket 4.1 23:14:13 20° SW 23:17:51 74° WNW 23:23:01 10° NNE
STARLINK-1368 3.6 23:15:38 10° W 23:19:39 79° N 23:23:41 10° E
Cosmos 1745 Rocket 4.2 23:16:47 19° SSW 23:21:14 60° WNW 23:27:20 10° N
Meteor 1-29 2.9 23:19:32 10° NNE 23:22:54 70° ESE 23:24:32 28° S
ERBS 4.0 23:20:32 10° W 23:22:16 17° WSW 23:22:16 17° WSW
STARLINK-1317 4.4 23:21:44 25° S 23:22:56 30° SE 23:26:23 10° E
Cosmos 1455 2.4 23:19:36 10° NNW 23:23:17 56° W 23:25:11 26° SSW
STARLINK-1369 3.6 23:19:22 10° W 23:23:20 78° N 23:27:19 10° E
Cosmos 1626 4.3 23:20:53 10° WSW 23:23:31 18° WNW 23:26:10 10° NNW
Cosmos 1937 Rocket 4.0 23:18:54 10° NW 23:23:53 44° WSW 23:27:02 21° SSW
Cosmos 2369 3.7 23:20:09 20° SSW 23:24:10 84° ESE 23:29:52 10° NNE
Cosmos 1812 Rocket 4.3 23:20:29 10° NNW 23:24:39 40° W 23:27:04 21° SSW
USA 229 DEB 4.0 23:19:10 10° NW 23:26:23 82° NE 23:33:59 10° SE
Cosmos 1328 4.0 23:24:02 23° S 23:26:23 65° E 23:30:22 10° NNE
USA 229 4.0 23:19:17 10° NW 23:26:29 81° NE 23:34:05 10° SE
Cosmos 2263 Rocket 2.5 23:21:24 10° NNW 23:27:02 68° NE 23:32:35 10° SE
Timation 1 Rocket 4.3 23:21:05 10° NW 23:27:06 84° WSW 23:33:04 10° SSE
NOSS 3-1 (C) 4.1 23:19:58 10° NW 23:27:15 87° NE 23:35:44 10° SE
ADEOS II 4.5 23:25:11 10° NE 23:27:42 13° E 23:30:11 10° ESE
STARLINK-1372 3.6 23:23:49 10° W 23:27:47 78° N 23:31:47 10° E
Alouette 2 Rocket 3.7 23:23:03 10° NNW 23:28:05 62° W 23:30:22 23° S
STARLINK-1274 4.2 23:27:24 26° S 23:28:18 29° SE 23:31:25 10° E
STARLINK-43 3.2 23:26:08 18° WSW 23:28:47 64° SSE 23:32:26 10° ENE
STARLINK-55 3.4 23:28:11 30° SSW 23:29:12 40° SSE 23:32:14 10° E
Lacrosse 4 Rocket 2.7 23:26:12 10° WNW 23:29:40 24° WSW 23:31:03 20° SW
Cosmos 2297 Rocket 3.7 23:26:21 10° NW 23:30:22 20° W 23:32:59 15° SW
STARLINK-1291 4.2 23:30:04 25° S 23:31:16 32° SSE 23:34:36 10° E
STARLINK-1378 3.6 23:28:14 10° W 23:32:13 78° N 23:36:13 10° E
Cosmos 1703 3.2 23:30:32 24° S 23:32:51 82° E 23:36:48 10° NNE
Cosmos 1656 4.3 23:27:54 12° SW 23:32:56 53° NW 23:38:24 10° NNE
Cosmos 1825 Rocket 3.5 23:31:32 22° S 23:34:17 86° E 23:38:40 10° NNE
STARLINK-1264 4.2 23:33:14 25° S 23:34:34 33° SSE 23:37:56 10° E
NOSS 3-1 (A) 4.3 23:28:07 10° NW 23:35:19 74° NE 23:43:45 10° SE
CZ-4C R/B 2.3 23:31:35 14° SW 23:36:11 79° NW 23:42:34 10° NE
STARLINK-1379 3.6 23:32:43 10° W 23:36:43 78° N 23:40:43 10° E
Cosmos 372 Rocket 4.0 23:31:36 10° NNW 23:36:44 69° WSW 23:40:53 16° SSE
SL-4 R/B 2.4 23:32:14 10° W 23:37:00 58° SSW 23:41:40 10° ESE
STARLINK-1267 4.1 23:36:27 25° SSW 23:37:53 34° SSE 23:41:18 10° E
UNK 4.4 23:33:36 10° SE 23:38:04 53° ENE 23:42:32 10° N
Cosmos 1602 Rocket 4.4 23:35:23 18° SW 23:38:12 39° WNW 23:42:18 10° N
STARLINK-29 2.8 23:35:39 10° WNW 23:38:52 75° SSW 23:42:03 10° ESE
Cosmos 2360 4.2 23:35:46 19° SSW 23:39:57 85° ESE 23:45:42 10° NNE
STARLINK-1329 3.6 23:36:28 10° W 23:40:28 78° N 23:44:28 10° E
STARLINK-28 3.1 23:39:11 26° SW 23:40:40 49° SSE 23:43:47 10° E
PSLV R/B 4.0 23:36:33 10° N 23:40:55 54° WNW 23:43:52 19° SW
STARLINK-1207 4.0 23:42:56 24° SSW 23:44:36 37° SSE 23:48:05 10° E
STARLINK-1362 3.6 23:40:58 10° W 23:44:58 78° N 23:48:59 10° E
STARLINK-1266 3.9 23:46:11 23° SSW 23:47:58 39° SSE 23:51:30 10° E
Cosmos 2150 Rocket 3.9 23:43:40 10° NNW 23:48:50 72° WSW 23:53:28 13° SSE
STARLINK-1373 3.6 23:45:27 10° W 23:49:27 79° N 23:53:27 10° E
STARLINK-33 3.0 23:49:21 25° SW 23:50:50 50° SSE 23:53:50 10° E
STARLINK-1284 3.9 23:49:26 22° SSW 23:51:21 41° SSE 23:54:54 10° E
Cosmos 2322 Rocket 3.7 23:48:00 10° SSE 23:52:32 26° ESE 23:57:04 10° NE
Cosmos 2181 Rocket 4.2 23:46:24 10° NNW 23:52:47 65° W 23:58:00 16° S
Cosmos 1814 Rocket 4.0 23:49:00 19° SSW 23:52:57 89° WNW 23:58:17 10° NNE
Cosmos 1869 4.4 23:49:30 10° N 23:53:12 40° ENE 23:56:52 10° SE
STARLINK-26 3.2 23:51:17 20° SW 23:53:29 56° SSE 23:56:52 10° ENE
STARLINK-1320 2.9 23:50:41 10° W 23:53:49 81° N 23:56:57 10° E
STARLINK-1390 3.6 23:49:58 10° W 23:53:58 79° N 23:57:59 10° E
SL-19 R/B 4.4 23:48:22 10° NNE 23:54:00 89° ESE 23:58:42 17° SSW
STARLINK-1322 2.9 23:51:01 10° W 23:54:10 81° N 23:57:18 10° E
STARLINK-1324 2.9 23:51:20 10° W 23:54:27 81° N 23:57:35 10° E
STARLINK-1258 3.8 23:52:43 22° SSW 23:54:46 43° SSE 23:58:20 10° E
STARLINK-1294 2.9 23:51:40 10° W 23:54:47 81° N 23:57:57 10° E
STARLINK-1261 2.9 23:52:02 10° W 23:55:10 81° N 23:58:18 10° E
STARLINK-1325 2.9 23:52:23 10° W 23:55:31 81° N 23:58:39 10° E
STARLINK-1333 2.9 23:52:46 10° W 23:55:54 82° N 23:59:02 10° E
ATLAS CENTAUR R/B 4.3 23:53:52 10° NW 23:56:05 14° N 23:58:15 10° NNE
STARLINK-1334 2.9 23:53:03 10° W 23:56:10 82° N 23:59:18 10° E
STARLINK-1326 2.9 23:53:21 10° W 23:56:30 82° N 23:59:37 10° E
SJ 16-02 3.5 23:56:09 10° WNW 23:57:48 12° W 23:59:27 10° WSW
